Simultaneous Nadir Overpasses (SNOs) Predictions

Prediction of SNOs between LANDSAT-8 and METOP-B Satellite Orbit:

Table of predicted SNOs for the next 14.0 days since TLE Epoch: 11/30/2013
Index Date (LANDSAT-8) Time (LANDSAT-8) Lat,Lon (LANDSAT-8) SZA (LANDSAT-8 ) Date (METOP-B) Time (METOP-B) Lat,Lon (METOP-B) SZA (METOP-B ) Distance(km) Time Diff (sec)
1 11/30/2013 18:59:06 -81.08, 114.53 75.02 11/30/2013 18:58:05 -81.07, 114.36 75.07 3.15 61
2 11/30/2013 19:48:31 81.10, -77.42 105.06 11/30/2013 19:48:43 81.10, -77.48 105.05 1.31 12
3 12/03/2013 14:33:21 -81.07,-179.16 74.65 12/03/2013 14:32:29 -81.07,-179.18 74.67 0.41 52
4 12/03/2013 15:22:46 81.09, -11.15 105.42 12/03/2013 15:23:07 81.10, -11.07 105.44 1.45 21
5 12/06/2013 10:07:36 -81.08,-112.58 74.30 12/06/2013 10:06:53 -81.08,-112.41 74.30 3.01 43
6
